Time,TemperatureF,DewpointF,PressureIn,WindDirection,WindDirectionDegrees,WindSpeedMPH,WindSpeedGustMPH,Humidity,HourlyPrecipIn,Conditions,Clouds,dailyrainin,SoftwareType,DateUTC
2013-01-11 00:02:00,22.0,11.0,-100.00,South,185,17.0,21.0,63,-99.99,,,-99.99,,2013-01-11 07:02:00,
2013-01-11 00:11:00,21.0,11.0,-100.00,South,180,17.0,21.0,64,-99.99,,,-99.99,,2013-01-11 07:11:00,
2013-01-11 00:22:00,21.0,11.0,-100.00,South,185,17.0,19.0,64,-99.99,,,-99.99,,2013-01-11 07:22:00,
2013-01-11 00:32:00,21.0,11.0,-100.00,South,175,17.0,21.0,65,-99.99,,,-99.99,,2013-01-11 07:32:00,
2013-01-11 00:42:00,21.0,12.0,-100.00,South,180,17.0,22.0,67,-99.99,,,-99.99,,2013-01-11 07:42:00,
2013-01-11 00:52:00,22.0,14.0,-100.00,South,185,17.0,21.0,69,-99.99,,,-99.99,,2013-01-11 07:52:00,
2013-01-11 01:02:00,22.0,15.0,-100.00,South,180,17.0,21.0,70,-99.99,,,-99.99,,2013-01-11 08:02:00,
2013-01-11 01:11:00,22.0,14.0,-100.00,South,175,17.0,23.0,73,-99.99,,,-99.99,,2013-01-11 08:11:00,
2013-01-11 01:22:00,22.0,15.0,-100.00,South,170,16.0,21.0,75,-99.99,,,-99.99,,2013-01-11 08:22:00,
2013-01-11 01:32:00,22.0,16.0,-100.00,South,180,15.0,20.0,76,-99.99,,,-99.99,,2013-01-11 08:32:00,
2013-01-11 01:42:00,22.0,16.0,-100.00,South,180,14.0,20.0,77,-99.99,,,-99.99,,2013-01-11 08:42:00,
2013-01-11 01:52:00,21.0,16.0,-100.00,South,185,14.0,19.0,79,-99.99,,,-99.99,,2013-01-11 08:52:00,
2013-01-11 02:02:00,22.0,17.0,-100.00,South,180,14.0,20.0,79,-99.99,,,-99.99,,2013-01-11 09:02:00,
2013-01-11 02:11:00,22.0,17.0,-100.00,South,185,16.0,19.0,79,-99.99,,,-99.99,,2013-01-11 09:11:00,
2013-01-11 02:22:00,23.0,17.0,-100.00,SSW,195,15.0,19.0,79,-99.99,,,-99.99,,2013-01-11 09:22:00,
2013-01-11 02:32:00,23.0,18.0,-100.00,SSW,200,14.0,19.0,79,-99.99,,,-99.99,,2013-01-11 09:32:00,
2013-01-11 02:42:00,23.0,17.0,-100.00,South,190,14.0,19.0,78,-99.99,,,-99.99,,2013-01-11 09:42:00,
2013-01-11 02:52:00,24.0,18.0,-100.00,South,175,17.0,21.0,79,-99.99,,,-99.99,,2013-01-11 09:52:00,
2013-01-11 03:02:00,24.0,19.0,-100.00,South,180,12.0,20.0,81,-99.99,,,-99.99,,2013-01-11 10:02:00,
2013-01-11 03:11:00,24.0,19.0,-100.00,SSW,200,11.0,17.0,81,-99.99,,,-99.99,,2013-01-11 10:11:00,
2013-01-11 03:22:00,23.0,19.0,-100.00,West,260,9.0,14.0,81,-99.99,,,-99.99,,2013-01-11 10:22:00,
2013-01-11 03:32:00,23.0,18.0,-100.00,WSW,245,11.0,12.0,80,-99.99,,,-99.99,,2013-01-11 10:32:00,
2013-01-11 03:42:00,23.0,18.0,-100.00,WSW,240,11.0,14.0,79,-99.99,,,-99.99,,2013-01-11 10:42:00,
2013-01-11 03:52:00,22.0,17.0,-100.00,SW,220,12.0,16.0,79,-99.99,,,-99.99,,2013-01-11 10:52:00,
2013-01-11 04:02:00,22.0,17.0,-100.00,WNW,285,9.0,16.0,78,-99.99,,,-99.99,,2013-01-11 11:02:00,
2013-01-11 04:11:00,22.0,17.0,-100.00,West,280,7.0,11.0,79,-99.99,,,-99.99,,2013-01-11 11:11:00,
2013-01-11 04:22:00,20.0,15.0,-100.00,West,275,9.0,14.0,81,-99.99,,,-99.99,,2013-01-11 11:22:00,
2013-01-11 04:32:00,20.0,16.0,-100.00,West,275,11.0,17.0,83,-99.99,,,-99.99,,2013-01-11 11:32:00,
2013-01-11 04:42:00,20.0,16.0,-100.00,West,280,9.0,13.0,84,-99.99,,,-99.99,,2013-01-11 11:42:00,
2013-01-11 04:52:00,19.0,16.0,-100.00,NW,310,9.0,12.0,84,-99.99,,,-99.99,,2013-01-11 11:52:00,
2013-01-11 05:02:00,17.0,13.0,-100.00,North,355,12.0,15.0,84,-99.99,,,-99.99,,2013-01-11 12:02:00,
2013-01-11 05:12:00,16.0,13.0,-100.00,NNW,340,14.0,19.0,84,-99.99,,,-99.99,,2013-01-11 12:12:00,
2013-01-11 05:22:00,15.0,11.0,-100.00,NNW,340,16.0,21.0,83,-99.99,,,-99.99,,2013-01-11 12:22:00,
2013-01-11 05:32:00,14.0,10.0,-100.00,NNW,335,15.0,19.0,83,-99.99,,,-99.99,,2013-01-11 12:32:00,
2013-01-11 05:42:00,14.0,10.0,-100.00,NW,320,8.0,17.0,83,-99.99,,,-99.99,,2013-01-11 12:42:00,
2013-01-11 05:52:00,13.0,9.0,-100.00,NNW,330,12.0,17.0,83,-99.99,,,-99.99,,2013-01-11 12:52:00,
2013-01-11 06:02:00,13.0,8.0,-100.00,North,350,16.0,21.0,83,-99.99,,,-99.99,,2013-01-11 13:02:00,
2013-01-11 06:22:00,12.0,8.0,-100.00,NNW,340,16.0,20.0,82,-99.99,,,-99.99,,2013-01-11 13:22:00,
2013-01-11 06:32:00,11.0,7.0,-100.00,NW,320,18.0,21.0,82,-99.99,,,-99.99,,2013-01-11 13:32:00,
2013-01-11 06:42:00,11.0,7.0,-100.00,NNW,330,15.0,21.0,82,-99.99,,,-99.99,,2013-01-11 13:42:00,
2013-01-11 06:52:00,11.0,7.0,-100.00,NW,305,14.0,19.0,82,-99.99,,,-99.99,,2013-01-11 13:52:00,
2013-01-11 07:02:00,12.0,8.0,-100.00,NNW,330,13.0,17.0,82,-99.99,,,-99.99,,2013-01-11 14:02:00,
2013-01-11 07:11:00,11.0,7.0,-100.00,NNW,345,16.0,22.0,82,-99.99,,,-99.99,,2013-01-11 14:11:00,
2013-01-11 07:22:00,9.0,4.0,-100.00,NW,325,18.0,24.0,81,-99.99,,,-99.99,,2013-01-11 14:22:00,
2013-01-11 07:33:00,8.0,4.0,-100.00,NNW,340,20.0,26.0,81,-99.99,,,-99.99,,2013-01-11 14:33:00,
2013-01-11 07:42:00,8.0,4.0,-100.00,NNW,335,16.0,24.0,81,-99.99,,,-99.99,,2013-01-11 14:42:00,
2013-01-11 07:52:00,8.0,3.0,-100.00,NNW,330,15.0,21.0,81,-99.99,,,-99.99,,2013-01-11 14:52:00,
2013-01-11 08:03:00,8.0,3.0,-100.00,NW,320,16.0,22.0,81,-99.99,,,-99.99,,2013-01-11 15:03:00,
2013-01-11 08:12:00,7.0,3.0,-100.00,NW,325,18.0,24.0,81,-99.99,,,-99.99,,2013-01-11 15:12:00,
2013-01-11 08:22:00,7.0,2.0,-100.00,NNW,345,17.0,23.0,81,-99.99,,,-99.99,,2013-01-11 15:22:00,
2013-01-11 08:32:00,7.0,2.0,-100.00,NW,325,11.0,22.0,81,-99.99,,,-99.99,,2013-01-11 15:32:00,
2013-01-11 08:42:00,6.0,2.0,-100.00,North,0,20.0,23.0,80,-99.99,,,-99.99,,2013-01-11 15:42:00,
2013-01-11 08:52:00,6.0,1.0,-100.00,North,0,17.0,27.0,80,-99.99,,,-99.99,,2013-01-11 15:52:00,
2013-01-11 09:02:00,6.0,1.0,-100.00,North,10,14.0,26.0,80,-99.99,,,-99.99,,2013-01-11 16:02:00,
2013-01-11 09:11:00,6.0,1.0,-100.00,North,5,17.0,24.0,80,-99.99,,,-99.99,,2013-01-11 16:11:00,
2013-01-11 09:22:00,6.0,2.0,-100.00,North,0,15.0,25.0,80,-99.99,,,-99.99,,2013-01-11 16:22:00,
2013-01-11 09:32:00,6.0,1.0,-100.00,North,0,15.0,18.0,80,-99.99,,,-99.99,,2013-01-11 16:32:00,
2013-01-11 09:42:00,6.0,1.0,-100.00,North,0,12.0,21.0,80,-99.99,,,-99.99,,2013-01-11 16:42:00,
2013-01-11 09:52:00,6.0,1.0,-100.00,North,0,12.0,21.0,80,-99.99,,,-99.99,,2013-01-11 16:52:00,
2013-01-11 10:02:00,6.0,2.0,-100.00,NNW,330,10.0,15.0,80,-99.99,,,-99.99,,2013-01-11 17:02:00,
2013-01-11 10:12:00,6.0,2.0,-100.00,NNW,340,12.0,13.0,80,-99.99,,,-99.99,,2013-01-11 17:12:00,
2013-01-11 10:22:00,6.0,2.0,-100.00,North,350,10.0,13.0,80,-99.99,,,-99.99,,2013-01-11 17:22:00,
2013-01-11 10:33:00,7.0,2.0,-100.00,NW,325,11.0,14.0,80,-99.99,,,-99.99,,2013-01-11 17:33:00,
2013-01-11 10:42:00,7.0,2.0,-100.00,NNW,335,11.0,13.0,80,-99.99,,,-99.99,,2013-01-11 17:42:00,
2013-01-11 10:52:00,7.0,2.0,-100.00,NNW,335,12.0,14.0,80,-99.99,,,-99.99,,2013-01-11 17:52:00,
2013-01-11 11:02:00,8.0,3.0,-100.00,NW,315,12.0,14.0,80,-99.99,,,-99.99,,2013-01-11 18:02:00,
2013-01-11 11:12:00,8.0,3.0,-100.00,NW,325,11.0,14.0,80,-99.99,,,-99.99,,2013-01-11 18:12:00,
2013-01-11 11:22:00,7.0,2.0,-100.00,NNW,340,9.0,14.0,80,-99.99,,,-99.99,,2013-01-11 18:22:00,
2013-01-11 11:32:00,8.0,4.0,-100.00,NNW,330,9.0,12.0,80,-99.99,,,-99.99,,2013-01-11 18:32:00,
2013-01-11 11:42:00,8.0,3.0,-100.00,NNW,340,11.0,12.0,80,-99.99,,,-99.99,,2013-01-11 18:42:00,
2013-01-11 11:53:00,7.0,2.0,-100.00,NNW,345,12.0,14.0,79,-99.99,,,-99.99,,2013-01-11 18:53:00,
2013-01-11 12:02:00,8.0,3.0,-100.00,NNW,335,9.0,13.0,79,-99.99,,,-99.99,,2013-01-11 19:02:00,
2013-01-11 12:12:00,6.0,1.0,-100.00,North,0,10.0,13.0,79,-99.99,,,-99.99,,2013-01-11 19:12:00,
2013-01-11 12:22:00,7.0,2.0,-100.00,NNW,340,7.0,12.0,79,-99.99,,,-99.99,,2013-01-11 19:22:00,
2013-01-11 12:32:00,6.0,1.0,-100.00,NNW,335,14.0,16.0,79,-99.99,,,-99.99,,2013-01-11 19:32:00,
2013-01-11 12:42:00,6.0,1.0,-100.00,NNW,335,12.0,16.0,79,-99.99,,,-99.99,,2013-01-11 19:42:00,
2013-01-11 12:52:00,6.0,0.0,-100.00,North,350,12.0,15.0,79,-99.99,,,-99.99,,2013-01-11 19:52:00,
2013-01-11 13:02:00,6.0,1.0,-100.00,NNW,345,12.0,14.0,79,-99.99,,,-99.99,,2013-01-11 20:02:00,
2013-01-11 13:11:00,6.0,1.0,-100.00,NNW,340,12.0,14.0,79,-99.99,,,-99.99,,2013-01-11 20:11:00,
2013-01-11 13:22:00,6.0,1.0,-100.00,NNW,335,9.0,14.0,79,-99.99,,,-99.99,,2013-01-11 20:22:00,
2013-01-11 13:32:00,6.0,0.0,-100.00,NNW,340,12.0,14.0,79,-99.99,,,-99.99,,2013-01-11 20:32:00,
2013-01-11 13:42:00,5.0,0.0,-100.00,North,355,12.0,17.0,79,-99.99,,,-99.99,,2013-01-11 20:42:00,
2013-01-11 13:52:00,4.0,-1.0,-100.00,North,0,12.0,17.0,78,-99.99,,,-99.99,,2013-01-11 20:52:00,
2013-01-11 14:02:00,4.0,-1.0,-100.00,North,350,12.0,20.0,78,-99.99,,,-99.99,,2013-01-11 21:02:00,
2013-01-11 14:12:00,4.0,-1.0,-100.00,NNE,20,7.0,17.0,78,-99.99,,,-99.99,,2013-01-11 21:12:00,
2013-01-11 14:22:00,3.0,-2.0,-100.00,North,0,11.0,16.0,78,-99.99,,,-99.99,,2013-01-11 21:22:00,
2013-01-11 14:32:00,3.0,-2.0,-100.00,NNE,20,11.0,17.0,78,-99.99,,,-99.99,,2013-01-11 21:32:00,
2013-01-11 14:42:00,3.0,-2.0,-100.00,North,0,9.0,18.0,78,-99.99,,,-99.99,,2013-01-11 21:42:00,
2013-01-11 14:52:00,3.0,-2.0,-100.00,North,0,12.0,16.0,78,-99.99,,,-99.99,,2013-01-11 21:52:00,
2013-01-11 15:02:00,3.0,-2.0,-100.00,North,0,13.0,16.0,78,-99.99,,,-99.99,,2013-01-11 22:02:00,
2013-01-11 15:12:00,3.0,-2.0,-100.00,North,0,10.0,14.0,78,-99.99,,,-99.99,,2013-01-11 22:12:00,
2013-01-11 15:22:00,4.0,-1.0,-100.00,North,0,9.0,11.0,78,-99.99,,,-99.99,,2013-01-11 22:22:00,
2013-01-11 15:32:00,4.0,-1.0,-100.00,NNW,335,9.0,11.0,78,-99.99,,,-99.99,,2013-01-11 22:32:00,
2013-01-11 15:42:00,3.0,-2.0,-100.00,North,0,12.0,14.0,78,-99.99,,,-99.99,,2013-01-11 22:42:00,
2013-01-11 15:52:00,2.0,-3.0,-100.00,North,0,12.0,17.0,78,-99.99,,,-99.99,,2013-01-11 22:52:00,
2013-01-11 16:02:00,1.0,-4.0,-100.00,North,0,14.0,19.0,78,-99.99,,,-99.99,,2013-01-11 23:02:00,
2013-01-11 16:12:00,1.0,-4.0,-100.00,North,0,14.0,19.0,78,-99.99,,,-99.99,,2013-01-11 23:12:00,
2013-01-11 16:22:00,1.0,-4.0,-100.00,North,0,12.0,19.0,78,-99.99,,,-99.99,,2013-01-11 23:22:00,
2013-01-11 16:32:00,1.0,-5.0,-100.00,NNW,345,13.0,19.0,78,-99.99,,,-99.99,,2013-01-11 23:32:00,
2013-01-11 16:42:00,0.0,-5.0,-100.00,North,355,13.0,17.0,78,-99.99,,,-99.99,,2013-01-11 23:42:00,
2013-01-11 16:52:00,0.0,-5.0,-100.00,North,355,13.0,16.0,78,-99.99,,,-99.99,,2013-01-11 23:52:00,
2013-01-11 17:02:00,0.0,-6.0,-100.00,NNW,345,12.0,16.0,78,-99.99,,,-99.99,,2013-01-12 00:02:00,
2013-01-11 17:12:00,-1.0,-6.0,-100.00,North,0,11.0,16.0,78,-99.99,,,-99.99,,2013-01-12 00:12:00,
2013-01-11 17:22:00,-1.0,-6.0,-100.00,North,0,10.0,16.0,78,-99.99,,,-99.99,,2013-01-12 00:22:00,
2013-01-11 17:32:00,-1.0,-6.0,-100.00,North,5,11.0,16.0,78,-99.99,,,-99.99,,2013-01-12 00:32:00,
2013-01-11 17:42:00,-1.0,-6.0,-100.00,North,10,10.0,15.0,78,-99.99,,,-99.99,,2013-01-12 00:42:00,
2013-01-11 17:52:00,-1.0,-6.0,-100.00,NNW,345,7.0,12.0,78,-99.99,,,-99.99,,2013-01-12 00:52:00,
2013-01-11 18:02:00,-1.0,-6.0,-100.00,NNW,335,6.0,9.0,78,-99.99,,,-99.99,,2013-01-12 01:02:00,
2013-01-11 18:12:00,-1.0,-6.0,-100.00,NW,325,4.0,6.0,78,-99.99,,,-99.99,,2013-01-12 01:12:00,
2013-01-11 18:22:00,-1.0,-6.0,-100.00,NNW,330,4.0,5.0,78,-99.99,,,-99.99,,2013-01-12 01:22:00,
2013-01-11 18:32:00,-1.0,-6.0,-100.00,NW,325,5.0,6.0,78,-99.99,,,-99.99,,2013-01-12 01:32:00,
2013-01-11 18:42:00,-1.0,-6.0,-100.00,NW,315,6.0,7.0,78,-99.99,,,-99.99,,2013-01-12 01:42:00,
2013-01-11 18:52:00,-1.0,-6.0,-100.00,NW,320,7.0,8.0,78,-99.99,,,-99.99,,2013-01-12 01:52:00,
2013-01-11 19:02:00,-1.0,-6.0,-100.00,NW,320,8.0,10.0,78,-99.99,,,-99.99,,2013-01-12 02:02:00,
2013-01-11 19:11:00,-1.0,-6.0,-100.00,NW,325,7.0,11.0,78,-99.99,,,-99.99,,2013-01-12 02:11:00,
2013-01-11 19:22:00,-1.0,-6.0,-100.00,NNW,330,7.0,9.0,78,-99.99,,,-99.99,,2013-01-12 02:22:00,
2013-01-11 19:32:00,-1.0,-6.0,-100.00,NNW,330,6.0,9.0,78,-99.99,,,-99.99,,2013-01-12 02:32:00,
2013-01-11 19:42:00,-1.0,-6.0,-100.00,North,350,7.0,9.0,78,-99.99,,,-99.99,,2013-01-12 02:42:00,
2013-01-11 19:52:00,-1.0,-6.0,-100.00,NNW,340,7.0,9.0,78,-99.99,,,-99.99,,2013-01-12 02:52:00,
2013-01-11 20:02:00,-1.0,-6.0,-100.00,NNW,330,6.0,9.0,78,-99.99,,,-99.99,,2013-01-12 03:02:00,
2013-01-11 20:11:00,-1.0,-6.0,-100.00,NNW,330,7.0,10.0,78,-99.99,,,-99.99,,2013-01-12 03:11:00,
2013-01-11 20:22:00,-1.0,-6.0,-100.00,NNW,345,9.0,11.0,78,-99.99,,,-99.99,,2013-01-12 03:22:00,
2013-01-11 20:32:00,-1.0,-6.0,-100.00,NNW,340,9.0,12.0,78,-99.99,,,-99.99,,2013-01-12 03:32:00,
2013-01-11 20:42:00,-1.0,-6.0,-100.00,NNW,345,9.0,11.0,78,-99.99,,,-99.99,,2013-01-12 03:42:00,
2013-01-11 20:52:00,-1.0,-7.0,-100.00,NNW,345,9.0,11.0,78,-99.99,,,-99.99,,2013-01-12 03:52:00,
2013-01-11 21:02:00,-1.0,-7.0,-100.00,NNW,340,7.0,12.0,78,-99.99,,,-99.99,,2013-01-12 04:02:00,
2013-01-11 21:11:00,-2.0,-7.0,-100.00,NNW,335,9.0,12.0,78,-99.99,,,-99.99,,2013-01-12 04:11:00,
2013-01-11 21:22:00,-2.0,-7.0,-100.00,NNW,340,8.0,12.0,78,-99.99,,,-99.99,,2013-01-12 04:22:00,
2013-01-11 21:32:00,-2.0,-7.0,-100.00,NNW,330,9.0,10.0,78,-99.99,,,-99.99,,2013-01-12 04:32:00,
2013-01-11 21:42:00,-2.0,-7.0,-100.00,NNW,340,7.0,10.0,78,-99.99,,,-99.99,,2013-01-12 04:42:00,
2013-01-11 21:52:00,-2.0,-7.0,-100.00,NNW,345,7.0,11.0,78,-99.99,,,-99.99,,2013-01-12 04:52:00,
2013-01-11 22:03:00,-2.0,-7.0,-100.00,NNW,345,7.0,10.0,78,-99.99,,,-99.99,,2013-01-12 05:03:00,
2013-01-11 22:12:00,-2.0,-7.0,-100.00,NNW,335,7.0,10.0,78,-99.99,,,-99.99,,2013-01-12 05:12:00,
2013-01-11 22:22:00,-2.0,-7.0,-100.00,NNW,335,6.0,9.0,77,-99.99,,,-99.99,,2013-01-12 05:22:00,
2013-01-11 22:32:00,-2.0,-7.0,-100.00,NNW,345,7.0,8.0,77,-99.99,,,-99.99,,2013-01-12 05:32:00,
2013-01-11 22:42:00,-2.0,-7.0,-100.00,NW,325,4.0,10.0,77,-99.99,,,-99.99,,2013-01-12 05:42:00,
2013-01-11 22:52:00,-2.0,-8.0,-100.00,NNW,330,6.0,10.0,77,-99.99,,,-99.99,,2013-01-12 05:52:00,
2013-01-11 23:02:00,-3.0,-8.0,-100.00,NW,325,4.0,8.0,77,-99.99,,,-99.99,,2013-01-12 06:02:00,
2013-01-11 23:11:00,-3.0,-8.0,-100.00,NNW,340,4.0,6.0,77,-99.99,,,-99.99,,2013-01-12 06:11:00,
2013-01-11 23:22:00,-4.0,-9.0,-100.00,NW,305,2.0,4.0,77,-99.99,,,-99.99,,2013-01-12 06:22:00,
2013-01-11 23:32:00,-4.0,-9.0,-100.00,NW,310,1.0,5.0,77,-99.99,,,-99.99,,2013-01-12 06:32:00,
2013-01-11 23:42:00,-4.0,-9.0,-100.00,NW,320,2.0,4.0,77,-99.99,,,-99.99,,2013-01-12 06:42:00,
2013-01-11 23:52:00,-5.0,-10.0,-100.00,NNW,335,2.0,4.0,77,-99.99,,,-99.99,,2013-01-12 06:52:00,